Regional Weather Roundup
Issued by NWS

Home | Current Version | Previous Version | Graphics & Text | Print | Product List | Glossary On
Versions: 1 2 3 4 5 6 7 8 9 10 11 12 13 14 15 16 17 18 19 20 21 22 23 24 25 26 27 28 29 30 31 32 33 34 35 36 37 38 39 40 41 42 43 44 45 46 47 48 49 50
000
ASUS43 KBIS 271310
RWRND

NORTH DAKOTA REGIONAL WEATHER ROUNDUP
NATIONAL WEATHER SERVICE BISMARCK ND
800 AM CDT MON MAR 27 2017

NOTE: "FAIR" INDICATES FEW OR NO CLOUDS BELOW 12,000 FEET WITH NO
SIGNIFICANT WEATHER AND/OR OBSTRUCTIONS TO VISIBILITY.


NDZ001>003-009>011-017-271400-
NORTHWEST NORTH DAKOTA

CITY           SKY/WX    TMP DP  RH WIND       PRES   REMARKS
WILLISTON      FAIR      30  26  85 NE3       29.89R
MINOT          MOCLDY    34  31  88 NW3       29.89R
MINOT AFB      FOG       30  30 100 NW5       29.89S VSB 0
$$

NDZ018>021-031>035-040>046-271400-
SOUTHWEST NORTH DAKOTA

CITY           SKY/WX    TMP DP  RH WIND       PRES   REMARKS
BISMARCK       FAIR      32  30  92 CALM      29.93R
DICKINSON      FAIR      32  30  92 S9        29.86S
GARRISON         N/A     30  28  92 CALM      29.88R
HETTINGER ARPT FOG       28  26  92 CALM      29.90F VSB 1
$$

NDZ004>008-012>016-024-026-027-054-271400-
NORTHEAST NORTH DAKOTA

CITY           SKY/WX    TMP DP  RH WIND       PRES   REMARKS
GRAND FORKS    FOG       37  37 100 CALM      29.98R VSB 1/8
GRND FRKS AFB  FOG       36  36 100 CALM      29.99R VSB 1/4
DEVILS LAKE    FOG       30  30 100 SE8       29.93R VSB 1/4
$$

NDZ022-023-025-028>030-036>039-047>053-271400-
SOUTHEAST NORTH DAKOTA

CITY           SKY/WX    TMP DP  RH WIND       PRES   REMARKS
FARGO          FOG       31  30  96 E3        29.97R VSB 1/4
JAMESTOWN      FOG       27  26  96 CALM      29.93R VSB<1/4
$$




USA.gov is the U.S. government's official web portal to all federal, state and local government web resources and services.